User: anonymous   Login
Location: Newark
(48.5667°N, 7.8167°E)
Time: 11:00:02
(UTC+00:00)
Language:

CZ-6 R/B - Orbit

View from above orbital plane
View from above orbital plane
View from above satellite
View from above satellite

Ground track
Ground track

The orbit data is extracted from the following two-line orbital elements,

1 43025U 17074D   22276.78248756  .00031109  00000-0  52983-3 0  9993
2 43025  97.6848 101.3788 0073064 146.8188 213.7676 15.48297915273221
Epoch (UTC): 03 October 2022 18:46:46
Eccentricity: 0.0073064
inclination: 97.6848°
perigee height: 372 km
apogee height: 471 km
right ascension of ascending node: 101.3788°
argument of perigee: 146.8188°
revolutions per day: 15.48297915
mean anomaly at epoch: 213.7676°
orbit number at epoch: 27322

The dashed part of the orbit path shows where the satellite is in the earth's shadow,  

DLR